Weather observations for the past three days for
Atwood-Rawlins County City-County Airport
| Date | Time (cdt) | Wind (kph) | Vis. (km) | Weather | Sky Cond. | Temperature (ºC) | Relative Humidity | Wind Chill (°C) | Heat Index (°C) | Pressure | Precipitation (cm) | ||||||
|---|---|---|---|---|---|---|---|---|---|---|---|---|---|---|---|---|---|
| Air | Dwpt | 6 hour | altimeter (cm) | sea level (mb) | 1 hr | 3 hr | 6 hr | ||||||||||
| Max. | Min. | ||||||||||||||||
| 01 | 16:30 | SW 13 | 16.09 | Mostly Cloudy | BKN095 BKN120 | 33.4 | 13.5 | 30% | 32 | 76.15 | 0.0 | ||||||
| 01 | 16:10 | S 7 | 16.09 | Mostly Cloudy | BKN095 | 33.5 | 14.1 | 31% | 33 | 76.17 | 0.0 | ||||||
| 01 | 15:50 | Calm | 16.09 | Partly Cloudy | SCT095 SCT120 | 31.5 | 16.1 | 39% | 31 | 76.2 | 0.0 | ||||||
| 01 | 15:30 | Calm | 16.09 | Mostly Cloudy | SCT011 SCT035 BKN085 | 30.1 | 17.4 | 46% | 31 | 76.23 | 0.0 | ||||||
| 01 | 15:10 | N 6 | 8.05 | Rain | SCT006 BKN014 BKN027 | 25.7 | 16 | 55% | 26 | 76.28 | 0.0 | ||||||
| 01 | 14:50 | W 28 G 39 | 16.09 | Thunderstorm Heavy Rain in Vicinity | SCT006 SCT010 SCT017 | 28.3 | 17.7 | 53% | 29 | 76.3 | 0.0 | ||||||
| 01 | 14:30 | W 6 G 28 | 16.09 | Fair | CLR | 35.6 | 12 | 24% | 34 | 76.28 | 0.0 | ||||||
| 01 | 14:10 | SW 13 | 16.09 | Fair | CLR | 35.7 | 12.1 | 24% | 34 | 76.3 | 0.0 | ||||||
| 01 | 13:50 | S 7 | 16.09 | Fair | CLR | 35.4 | 12.3 | 25% | 34 | 76.3 | 0.0 | ||||||
| 01 | 13:30 | SW 19 G 26 | 16.09 | Fair | CLR | 34.8 | 12.5 | 26% | 34 | 76.33 | 0.0 | ||||||
| 01 | 13:10 | S 6 G 33 | 16.09 | Fair | CLR | 34.6 | 12.1 | 25% | 33 | 76.35 | 0.0 | ||||||
| 01 | 12:50 | S 17 | 16.09 | Fair | CLR | 34.1 | 12.5 | 27% | 33 | 76.38 | 0.0 | ||||||
| 01 | 12:30 | S 15 | 16.09 | Fair | CLR | 34.3 | 12.5 | 27% | 33 | 76.35 | 0.0 | ||||||
| 01 | 12:10 | S 15 G 28 | 16.09 | Fair | CLR | 33 | 12.5 | 29% | 32 | 76.38 | 0.0 | ||||||
| 01 | 11:50 | SE 17 | 16.09 | Fair | CLR | 33.2 | 12.5 | 28% | 32 | 76.4 | 0.0 | ||||||
| 01 | 11:30 | S 9 | 16.09 | Fair | CLR | 32.1 | 12.2 | 30% | 31 | 76.4 | 0.0 | ||||||
| 01 | 11:10 | S 9 | 16.09 | Fair | CLR | 32 | 13.6 | 33% | 31 | 76.43 | 0.0 | ||||||
| 01 | 10:50 | E 7 | 16.09 | Fair | CLR | 31.6 | 13.1 | 32% | 31 | 76.43 | 0.0 | ||||||
| 01 | 10:30 | E 7 | 16.09 | Fair | CLR | 30.6 | 13.2 | 34% | 30 | 76.43 | 0.0 | ||||||
| 01 | 10:10 | S 6 | 16.09 | Fair | CLR | 30.9 | 12.6 | 33% | 30 | 76.4 | 0.0 | ||||||
| 01 | 09:50 | S 9 | 16.09 | Fair | CLR | 29.4 | 13.1 | 37% | 29 | 76.4 | 0.0 | ||||||
| 01 | 09:30 | Calm | 16.09 | Fair | CLR | 27.7 | 13.7 | 42% | 28 | 76.4 | 0.0 | ||||||
| 01 | 09:10 | SW 6 | 16.09 | Fair | CLR | 25.7 | 14.6 | 50% | 26 | 76.4 | 0.0 | ||||||
| 01 | 08:50 | S 6 | 16.09 | Fair | CLR | 23.7 | 14.5 | 56% | 76.4 | 0.0 | |||||||
| 01 | 08:30 | S 7 | 16.09 | Fair | CLR | 22 | 14.9 | 64% | 76.4 | 0.0 | |||||||
| 01 | 08:10 | Calm | 16.09 | Fair | CLR | 21.1 | 14.7 | 67% | 76.38 | 0.0 | |||||||
| 01 | 07:50 | Calm | 16.09 | Fair | CLR | 19.2 | 14.5 | 74% | 76.38 | 0.0 | |||||||
| 01 | 07:30 | W 6 | 16.09 | Fair | CLR | 18.6 | 14.1 | 75% | 76.38 | 0.0 | |||||||
| 01 | 07:10 | W 9 | 16.09 | Fair | CLR | 18.6 | 14.1 | 75% | 76.35 | 0.0 | |||||||
| 01 | 06:50 | Calm | 16.09 | Fair | CLR | 19.5 | 14.1 | 71% | 76.33 | 0.0 | |||||||
| 01 | 06:30 | SW 6 | 16.09 | Fair | CLR | 19.8 | 14.2 | 70% | 76.35 | 0.0 | |||||||
| 01 | 06:10 | SW 7 | 16.09 | Fair | CLR | 19.6 | 14.2 | 71% | 76.35 | 0.0 | |||||||
| 01 | 05:50 | SW 7 | 16.09 | Fair | CLR | 20.1 | 14.4 | 70% | 76.35 | 0.0 | |||||||
| 01 | 05:30 | SW 7 | 16.09 | Fair | CLR | 21 | 14.5 | 67% | 76.35 | 0.0 | |||||||
| 01 | 05:10 | W 6 | 16.09 | Fair | CLR | 21.5 | 14.5 | 65% | 76.35 | 0.0 | |||||||
| 01 | 04:50 | W 9 | 16.09 | Fair | CLR | 21.7 | 14.3 | 63% | 76.35 | 0.0 | |||||||
| 01 | 04:30 | W 7 | 16.09 | Fair | CLR | 22.8 | 14.1 | 58% | 76.38 | 0.0 | |||||||
| 01 | 04:10 | W 24 G 35 | 16.09 | Fair | CLR | 23.7 | 13.7 | 54% | 76.38 | 0.0 | |||||||
| 01 | 03:50 | W 30 G 39 | 16.09 | Fair | CLR | 24.6 | 13.5 | 50% | 26 | 76.38 | 0.0 | ||||||
| 01 | 03:30 | W 24 G 35 | 16.09 | Fair | CLR | 24.6 | 14.1 | 52% | 26 | 76.43 | 0.0 | ||||||
| 01 | 03:10 | W 19 | 16.09 | Fair | CLR | 24 | 15.4 | 59% | 25 | 76.45 | 0.0 | ||||||
| 01 | 02:50 | W 13 | 16.09 | Fair | CLR | 23.1 | 15.4 | 62% | 76.45 | 0.0 | |||||||
| 01 | 02:30 | NW 7 | 16.09 | Fair | CLR | 23.3 | 15.2 | 60% | 76.43 | 0.0 | |||||||
| 01 | 02:10 | W 11 | 16.09 | Fair | CLR | 22.9 | 15.5 | 63% | 76.43 | 0.0 | |||||||
| 01 | 01:50 | SW 6 | 16.09 | Fair | CLR | 23 | 15.3 | 62% | 76.4 | 0.0 | |||||||
| 01 | 01:30 | NW 6 | 16.09 | Fair | CLR | 23.6 | 15.5 | 61% | 76.4 | 0.0 | |||||||
| 01 | 01:10 | Calm | 16.09 | Fair | CLR | 23.6 | 15.6 | 61% | 76.35 | 0.0 | |||||||
| 01 | 00:50 | W 7 | 16.09 | Fair | CLR | 23.7 | 15.6 | 61% | 76.38 | 0.0 | |||||||
| 01 | 00:30 | SW 6 | 16.09 | Fair | CLR | 24.5 | 15.6 | 58% | 26 | 76.35 | 0.0 | ||||||
| 01 | 00:10 | NE 9 | 16.09 | Fair | CLR | 25.7 | 15.5 | 53% | 26 | 76.3 | 0.0 | ||||||
| 31 | 23:50 | S 6 | 16.09 | Fair | CLR | 26.1 | 15.7 | 53% | 27 | 76.38 | 0.0 | ||||||
| 31 | 23:30 | S 7 | 16.09 | Fair | CLR | 25.8 | 15.9 | 54% | 27 | 76.4 | 0.0 | ||||||
| 31 | 23:10 | Calm | 16.09 | Fair | CLR | 26.5 | 16 | 53% | 27 | 76.4 | 0.0 | ||||||
| 31 | 22:50 | Calm | 16.09 | Fair | CLR | 26.7 | 15.9 | 52% | 27 | 76.4 | 0.0 | ||||||
| 31 | 22:30 | W 6 | 16.09 | Fair | CLR | 27.5 | 15.9 | 49% | 28 | 76.4 | 0.0 | ||||||
| 31 | 22:10 | NW 9 | 16.09 | Fair | CLR | 27.2 | 16 | 50% | 28 | 76.4 | 0.0 | ||||||
| 31 | 21:50 | SE 19 | 16.09 | Fair | CLR | 27.2 | 16 | 50% | 28 | 76.38 | 0.0 | ||||||
| 31 | 21:30 | E 9 | 16.09 | Fair | CLR | 28.1 | 15.7 | 47% | 28 | 76.35 | 0.0 | ||||||
| 31 | 21:10 | W 11 | 16.09 | Fair | CLR | 26.9 | 16.1 | 52% | 27 | 76.4 | 0.0 | ||||||
| 31 | 20:50 | Calm | 16.09 | Fair | CLR | 28.1 | 16 | 48% | 28 | 76.4 | 0.0 | ||||||
| 31 | 20:30 | Calm | 16.09 | Fair | CLR | 28.1 | 16 | 48% | 28 | 76.35 | 0.0 | ||||||
| 31 | 20:10 | E 9 | 16.09 | Fair | CLR | 28.9 | 15.6 | 44% | 29 | 76.28 | 0.0 | ||||||
| 31 | 19:50 | E 7 | 16.09 | Fair | CLR | 29.9 | 15.3 | 41% | 30 | 76.28 | 0.0 | ||||||
| 31 | 19:30 | E 13 | 16.09 | Fair | CLR | 30.9 | 14.7 | 37% | 30 | 76.23 | 0.0 | ||||||
| 31 | 19:10 | SE 13 | 16.09 | Fair | CLR | 31.5 | 14.4 | 35% | 31 | 76.25 | 0.0 | ||||||
| 31 | 18:30 | E 24 G 30 | 16.09 | Fair | CLR | 33.7 | 14 | 30% | 33 | 76.25 | 0.0 | ||||||
| 31 | 18:10 | SE 22 | 16.09 | Fair | CLR | 34.1 | 13.4 | 29% | 33 | 76.25 | 0.0 | ||||||
| 31 | 17:50 | E 19 G 30 | 16.09 | Fair | CLR | 34.6 | 13.5 | 28% | 34 | 76.28 | 0.0 | ||||||
| 31 | 17:30 | SE 19 G 28 | 16.09 | Fair | CLR | 35 | 13.6 | 27% | 34 | 76.28 | 0.0 | ||||||
| 31 | 17:10 | E 19 | 16.09 | Fair | CLR | 35.1 | 13.6 | 27% | 34 | 76.28 | 0.0 | ||||||
| 31 | 16:50 | SE 9 G 26 | 16.09 | Fair | CLR | 34.9 | 13.3 | 27% | 34 | 76.28 | 0.0 | ||||||
| 31 | 16:30 | SE 19 | 16.09 | Fair | CLR | 34.8 | 13.4 | 27% | 34 | 76.3 | 0.0 | ||||||
| 31 | 16:10 | E 20 G 33 | 16.09 | Fair | CLR | 35.6 | 13.6 | 27% | 35 | 76.3 | 0.0 | ||||||
| 31 | 15:50 | E 13 | 16.09 | Fair | CLR | 35.4 | 12.9 | 26% | 34 | 76.3 | 0.0 | ||||||
| 31 | 15:30 | SE 9 | 16.09 | Fair | CLR | 35.5 | 10.9 | 22% | 34 | 76.33 | 0.0 | ||||||
| 31 | 15:10 | SE 9 | 16.09 | Fair | CLR | 35.6 | 11.3 | 23% | 34 | 76.35 | 0.0 | ||||||
| 31 | 14:50 | SE 6 | 16.09 | Fair | CLR | 35.4 | 10.8 | 22% | 34 | 76.35 | 0.0 | ||||||
| 31 | 14:30 | S 13 | 16.09 | Fair | CLR | 35.3 | 11.5 | 24% | 34 | 76.35 | 0.0 | ||||||
| 31 | 14:10 | W 13 | 16.09 | Fair | CLR | 34.7 | 11.6 | 24% | 33 | 76.38 | 0.0 | ||||||
| 31 | 13:50 | Calm | 16.09 | Fair | CLR | 34.3 | 11.6 | 25% | 33 | 76.4 | 0.0 | ||||||
| 31 | 13:30 | SW 7 | 16.09 | Fair | CLR | 34.2 | 11.7 | 25% | 33 | 76.4 | 0.0 | ||||||
| 31 | 13:10 | SW 7 | 16.09 | Fair | CLR | 33.8 | 11.7 | 26% | 32 | 76.4 | 0.0 | ||||||
| 31 | 12:50 | S 11 | 16.09 | Fair | CLR | 33.1 | 11.7 | 27% | 32 | 76.43 | 0.0 | ||||||
| 31 | 12:30 | SW 11 | 16.09 | Fair | CLR | 33.1 | 11.8 | 27% | 32 | 76.43 | 0.0 | ||||||
| 31 | 12:10 | S 15 | 16.09 | Fair | CLR | 32.7 | 12.4 | 29% | 31 | 76.45 | 0.0 | ||||||
| 31 | 11:50 | S 13 | 16.09 | Fair | CLR | 32.6 | 12.1 | 29% | 31 | 76.45 | 0.0 | ||||||
| 31 | 11:30 | W 9 | 16.09 | Fair | CLR | 31.6 | 12.1 | 30% | 30 | 76.45 | 0.0 | ||||||
| 31 | 11:10 | S 9 | 16.09 | Fair | CLR | 30.8 | 11.9 | 31% | 30 | 76.45 | 0.0 | ||||||
| 31 | 10:50 | SW 11 | 16.09 | Fair | CLR | 29.8 | 13.3 | 36% | 29 | 76.45 | 0.0 | ||||||
| 31 | 10:30 | SW 9 | 16.09 | Fair | CLR | 29.1 | 14.3 | 40% | 29 | 76.43 | 0.0 | ||||||
| 31 | 10:10 | SW 13 | 16.09 | Fair | CLR | 28.2 | 14.5 | 43% | 28 | 76.43 | 0.0 | ||||||
| 31 | 09:50 | SW 11 | 16.09 | Fair | CLR | 26.6 | 16.3 | 53% | 27 | 76.43 | 0.0 | ||||||
| 31 | 09:30 | SW 6 | 16.09 | Fair | CLR | 24.7 | 17 | 62% | 26 | 76.43 | 0.0 | ||||||
| 31 | 09:10 | SW 7 | 16.09 | Fair | CLR | 23.4 | 17.2 | 68% | 76.43 | 0.0 | |||||||
| 31 | 08:50 | W 6 | 16.09 | Fair | CLR | 22.8 | 17.3 | 71% | 76.43 | 0.0 | |||||||
| 31 | 08:30 | W 7 | 16.09 | Fair | CLR | 21.4 | 17.5 | 79% | 76.43 | 0.0 | |||||||
| 31 | 08:10 | W 6 | 16.09 | Fair | CLR | 19.9 | 17.2 | 85% | 76.43 | 0.0 | |||||||
| 31 | 07:50 | W 7 | 16.09 | Fair | CLR | 19 | 16.6 | 86% | 76.43 | 0.0 | |||||||
| 31 | 07:30 | W 6 | 16.09 | Fair | CLR | 18.5 | 16.1 | 86% | 76.4 | 0.0 | |||||||
| 31 | 07:10 | SW 6 | 16.09 | Fair | CLR | 18.4 | 16 | 86% | 76.4 | 0.0 | |||||||
| 31 | 06:50 | W 6 | 16.09 | Fair | CLR | 19 | 16.3 | 84% | 76.38 | 0.0 | |||||||
| 31 | 06:30 | Calm | 16.09 | Fair | CLR | 19.9 | 17 | 83% | 76.38 | 0.0 | |||||||
| 31 | 06:10 | Calm | 16.09 | Fair | CLR | 20 | 17 | 83% | 76.38 | 0.0 | |||||||
| 31 | 05:50 | S 9 G 33 | 16.09 | Fair | CLR | 20.5 | 17.1 | 81% | 76.35 | 0.0 | |||||||
| 31 | 05:30 | N 9 | 16.09 | Fair | CLR | 20.2 | 17 | 82% | 76.25 | 0.0 | |||||||
| 31 | 05:10 | NE 9 | 16.09 | Fair | CLR | 20.9 | 17 | 78% | 76.28 | 0.0 | |||||||
| 31 | 04:50 | Calm | 16.09 | Fair | CLR | 21.1 | 17.1 | 78% | 76.38 | 0.0 | |||||||
| 31 | 04:30 | W 7 | 16.09 | Fair | CLR | 20.8 | 17.2 | 80% | 76.4 | 0.0 | |||||||
| 31 | 04:10 | Calm | 16.09 | Partly Cloudy | SCT009 | 21 | 17 | 78% | 76.38 | 0.0 | |||||||
| 31 | 03:50 | S 9 | 16.09 | Light Rain | SCT009 SCT015 | 21.6 | 16.8 | 74% | 76.35 | 0.0 | |||||||
| 31 | 03:30 | S 22 G 30 | 16.09 | Light Rain | BKN010 BKN014 | 22.1 | 16.5 | 71% | 76.38 | 0.0 | |||||||
| 31 | 03:10 | S 19 | 16.09 | Light Rain | SCT010 SCT090 | 23.5 | 14.6 | 58% | 76.38 | 0.0 | |||||||
| 31 | 02:50 | S 11 | 16.09 | Fair | CLR | 24.4 | 12.9 | 49% | 26 | 76.38 | 0.0 | ||||||
| 31 | 02:30 | Calm | 16.09 | Thunderstorm in Vicinity | CLR | 24.7 | 12.3 | 46% | 26 | 76.35 | 0.0 | ||||||
| 31 | 02:10 | SE 6 | 16.09 | Fair | CLR | 24.8 | 12.3 | 46% | 26 | 76.35 | 0.0 | ||||||
| 31 | 01:50 | S 6 | 16.09 | Fair | CLR | 25.2 | 12.4 | 45% | 26 | 76.35 | 0.0 | ||||||
| 31 | 01:30 | S 13 | 16.09 | Fair | CLR | 24.7 | 13.2 | 49% | 26 | 76.38 | 0.0 | ||||||
| 31 | 01:10 | SW 9 | 16.09 | Fair | CLR | 24.6 | 13.2 | 49% | 26 | 76.3 | 0.0 | ||||||
| 31 | 00:50 | Calm | 16.09 | Fair | CLR | 25 | 13 | 47% | 26 | 76.3 | 0.0 | ||||||
| 31 | 00:30 | SW 7 | 16.09 | Fair | CLR | 24.7 | 12.5 | 47% | 26 | 76.3 | 0.0 | ||||||
| 31 | 00:10 | Calm | 16.09 | Fair | CLR | 24.4 | 12.1 | 46% | 26 | 76.25 | 0.0 | ||||||
| 30 | 23:50 | SW 6 | 16.09 | Fair | CLR | 25 | 11.6 | 43% | 26 | 76.28 | 0.0 | ||||||
| 30 | 23:30 | W 6 | 16.09 | Fair | CLR | 25 | 11.5 | 43% | 26 | 76.28 | 0.0 | ||||||
| 30 | 23:10 | Calm | 16.09 | Fair | CLR | 26.5 | 10.3 | 36% | 26 | 76.25 | 0.0 | ||||||
| 30 | 22:50 | N 11 | 16.09 | Fair | CLR | 26.6 | 10.5 | 36% | 26 | 76.23 | 0.0 | ||||||
| 30 | 22:30 | N 20 | 16.09 | Fair | CLR | 26.6 | 10.7 | 37% | 26 | 76.2 | 0.0 | ||||||
| 30 | 22:10 | N 9 | 16.09 | Fair | CLR | 27 | 10.6 | 36% | 27 | 76.28 | 0.0 | ||||||
| 30 | 21:50 | N 13 | 16.09 | Fair | CLR | 27.3 | 10.7 | 35% | 27 | 76.28 | 0.0 | ||||||
| 30 | 21:30 | N 17 G 28 | 16.09 | Fair | CLR | 27.6 | 11.2 | 36% | 27 | 76.25 | 0.0 | ||||||
| 30 | 21:10 | N 19 G 28 | 16.09 | Fair | CLR | 27.6 | 12.2 | 38% | 27 | 76.23 | 0.0 | ||||||
| 30 | 20:50 | E 6 | 16.09 | Fair | CLR | 28 | 12.5 | 38% | 28 | 76.15 | 0.0 | ||||||
| 30 | 20:30 | E 7 | 16.09 | Fair | CLR | 28.5 | 11.9 | 36% | 28 | 76.15 | 0.0 | ||||||
| 30 | 20:10 | E 7 | 16.09 | Fair | CLR | 29.5 | 11.5 | 33% | 28 | 76.15 | 0.0 | ||||||
| 30 | 19:50 | E 6 | 16.09 | Fair | CLR | 30.9 | 11.1 | 29% | 30 | 76.12 | 0.0 | ||||||
| 30 | 19:30 | E 6 | 16.09 | Fair | CLR | 31.6 | 10.7 | 28% | 30 | 76.12 | 0.0 | ||||||
| 30 | 19:10 | SE 11 | 16.09 | Fair | CLR | 31.9 | 10.7 | 27% | 30 | 76.12 | 0.0 | ||||||
| 30 | 18:50 | SE 13 | 16.09 | Fair | CLR | 34 | 10.3 | 23% | 32 | 76.12 | 0.0 | ||||||
| 30 | 18:30 | SE 11 | 16.09 | Fair | CLR | 34.3 | 10.4 | 23% | 33 | 76.12 | 0.0 | ||||||
| 30 | 18:10 | SE 13 | 16.09 | Fair | CLR | 33.7 | 10.3 | 24% | 32 | 76.12 | 0.0 | ||||||
| 30 | 17:50 | SE 15 | 16.09 | Fair | CLR | 34.1 | 10.2 | 23% | 32 | 76.1 | 0.0 | ||||||
| 30 | 17:30 | SE 13 | 16.09 | Fair | CLR | 34.5 | 10.2 | 23% | 33 | 76.07 | 0.0 | ||||||
| 30 | 17:10 | SE 13 | 16.09 | Fair | CLR | 34.7 | 10.3 | 22% | 33 | 76.07 | 0.0 | ||||||
| 30 | 16:50 | SE 11 | 16.09 | Fair | CLR | 35.5 | 10.2 | 21% | 34 | 76.07 | 0.0 | ||||||
| 30 | 16:30 | SE 20 | 16.09 | Fair | CLR | 36.6 | 10.3 | 20% | 35 | 76.07 | 0.0 | ||||||
| 30 | 16:10 | E 9 | 16.09 | Fair | CLR | 35.9 | 9.2 | 19% | 34 | 76.07 | 0.0 | ||||||
| 30 | 15:50 | SE 11 | 16.09 | Fair | CLR | 36.6 | 8.3 | 18% | 35 | 76.07 | 0.0 | ||||||
| 30 | 15:30 | Calm | 16.09 | Fair | CLR | 36.5 | 8.4 | 18% | 34 | 76.1 | 0.0 | ||||||
| 30 | 15:10 | E 7 | 16.09 | Fair | CLR | 35.9 | 8.7 | 19% | 34 | 76.1 | 0.0 | ||||||
| 30 | 14:50 | S 9 | 16.09 | Fair | CLR | 36 | 8.7 | 19% | 34 | 76.1 | 0.0 | ||||||
| 30 | 14:30 | W 6 | 16.09 | Fair | CLR | 35.9 | 8.3 | 18% | 34 | 76.12 | 0.0 | ||||||
| 30 | 14:10 | NE 6 | 16.09 | Fair | CLR | 35.2 | 8 | 19% | 33 | 76.12 | 0.0 | ||||||
| 30 | 13:50 | SE 7 | 16.09 | Fair | CLR | 34.7 | 8.6 | 20% | 33 | 76.12 | 0.0 | ||||||
| 30 | 13:30 | Calm | 16.09 | Fair | CLR | 34.1 | 8.3 | 20% | 32 | 76.12 | 0.0 | ||||||
| 30 | 13:10 | Calm | 16.09 | Fair | CLR | 34 | 8.2 | 20% | 32 | 76.15 | 0.0 | ||||||
| 30 | 12:50 | N 7 | 16.09 | Fair | CLR | 33.2 | 8.4 | 22% | 31 | 76.15 | 0.0 | ||||||
| 30 | 12:30 | NE 6 | 16.09 | Fair | CLR | 33 | 8.6 | 22% | 31 | 76.17 | 0.0 | ||||||
| 30 | 12:10 | NW 9 | 16.09 | Fair | CLR | 30.9 | 9.1 | 26% | 29 | 76.2 | 0.0 | ||||||
| 30 | 11:50 | N 9 | 16.09 | Fair | CLR | 31.9 | 8.6 | 24% | 30 | 76.23 | 0.0 | ||||||
| 30 | 11:30 | NW 13 | 16.09 | Fair | CLR | 30.9 | 9.5 | 26% | 29 | 76.25 | 0.0 | ||||||
| 30 | 11:10 | NW 9 | 16.09 | Fair | CLR | 29.7 | 10.6 | 31% | 29 | 76.23 | 0.0 | ||||||
| 30 | 10:50 | NW 13 | 16.09 | Fair | CLR | 28.7 | 11.9 | 35% | 28 | 76.23 | 0.0 | ||||||
| 30 | 10:30 | NW 9 | 16.09 | Fair | CLR | 26.7 | 12.5 | 41% | 27 | 76.17 | 0.0 | ||||||
| 30 | 10:10 | NW 11 | 16.09 | Fair | CLR | 25.7 | 13.2 | 46% | 26 | 76.17 | 0.0 | ||||||
| 30 | 09:50 | NW 9 | 16.09 | Light Rain | SCT009 SCT013 SCT029 | 25 | 13.9 | 50% | 26 | 76.17 | 0.0 | ||||||
| 30 | 09:30 | NW 6 | 16.09 | Fair | CLR | 25.3 | 13.5 | 48% | 26 | 76.15 | 0.0 | ||||||
| 30 | 09:10 | W 15 | 16.09 | Fair | CLR | 24.6 | 13.7 | 51% | 26 | 76.2 | 0.0 | ||||||
| 30 | 08:50 | NW 11 | 16.09 | Fair | CLR | 23.6 | 13.9 | 55% | 76.12 | 0.0 | |||||||
| 30 | 08:30 | NW 13 | 16.09 | Fair | CLR | 22.2 | 14.1 | 60% | 76.15 | 0.0 | |||||||
| 30 | 08:10 | NW 17 | 16.09 | Fair | CLR | 21.3 | 14.7 | 66% | 76.15 | 0.0 | |||||||
| 30 | 07:50 | W 11 | 16.09 | Fair | CLR | 19.4 | 15 | 76% | 76.15 | 0.0 | |||||||
| 30 | 07:30 | W 11 | 16.09 | Fair | CLR | 18.6 | 15.1 | 80% | 76.12 | 0.0 | |||||||
| 30 | 07:10 | W 9 | 16.09 | Fair | CLR | 18.1 | 14.9 | 82% | 76.1 | 0.0 | |||||||
| 30 | 06:50 | W 9 | 16.09 | Fair | CLR | 18 | 14.8 | 82% | 76.1 | 0.0 | |||||||
| 30 | 06:30 | W 11 | 16.09 | Fair | CLR | 18.4 | 14.8 | 80% | 76.07 | 0.0 | |||||||
| 30 | 06:10 | W 9 | 16.09 | Fair | CLR | 17.5 | 14.5 | 83% | 76.07 | 0.0 | |||||||
| 30 | 05:50 | W 11 | 16.09 | Fair | CLR | 17.9 | 14.7 | 82% | 76.07 | 0.0 | |||||||
| 30 | 05:30 | W 9 | 16.09 | Fair | CLR | 18 | 14.7 | 81% | 76.07 | 0.0 | |||||||
| 30 | 05:10 | W 7 | 16.09 | Fair | CLR | 18.3 | 14.9 | 81% | 76.07 | 0.0 | |||||||
| 30 | 04:30 | W 9 | 16.09 | Fair | CLR | 19 | 15 | 78% | 76.1 | 0.0 | |||||||
| 30 | 04:10 | NW 11 | 16.09 | Fair | CLR | 19.5 | 14.9 | 75% | 76.1 | 0.0 | |||||||
| 30 | 03:50 | NW 6 | 16.09 | Fair | CLR | 19.4 | 14.5 | 73% | 76.07 | 0.0 | |||||||
| 30 | 03:30 | NW 9 | 16.09 | Fair | CLR | 19.2 | 14.4 | 74% | 76.1 | 0.0 | |||||||
| 30 | 03:10 | W 6 | 16.09 | Fair | CLR | 19.7 | 14.5 | 72% | 76.1 | 0.0 | |||||||
| 30 | 02:50 | W 9 | 16.09 | Fair | CLR | 19.5 | 14.6 | 73% | 76.1 | 0.0 | |||||||
| 30 | 02:30 | Calm | 16.09 | Fair | CLR | 21.3 | 14.6 | 66% | 76.1 | 0.0 | |||||||
| 30 | 02:10 | Calm | 16.09 | Fair | CLR | 21.2 | 14.7 | 67% | 76.1 | 0.0 | |||||||
| 30 | 01:50 | Calm | 16.09 | Fair | CLR | 22.3 | 15 | 63% | 76.12 | 0.0 | |||||||
| 30 | 01:30 | Calm | 16.09 | Fair | CLR | 22.2 | 15.1 | 64% | 76.12 | 0.0 | |||||||
| 30 | 01:10 | N 9 | 16.09 | Fair | CLR | 23 | 15 | 61% | 76.12 | 0.0 | |||||||
| 30 | 00:50 | N 17 | 16.09 | Fair | CLR | 23.5 | 15.2 | 60% | 76.1 | 0.0 | |||||||
| 30 | 00:30 | N 30 G 37 | 16.09 | Fair | CLR | 24 | 15 | 57% | 25 | 76.1 | 0.0 | ||||||
| 30 | 00:10 | N 33 G 50 | 16.09 | Fair and Breezy | CLR | 25 | 14.7 | 53% | 26 | 76.12 | 0.0 | ||||||
| 29 | 23:50 | N 30 G 57 | 16.09 | Fair | CLR | 26.8 | 14 | 45% | 27 | 76.1 | 0.0 | ||||||
| 29 | 23:30 | N 11 | 16.09 | Fair | CLR | 28.2 | 16 | 48% | 28 | 76 | 0.0 | ||||||
| 29 | 23:10 | E 15 | 16.09 | Fair | CLR | 28.2 | 16.2 | 48% | 29 | 75.95 | 0.0 | ||||||
| 29 | 22:50 | E 11 | 16.09 | Fair | CLR | 27.5 | 16.7 | 52% | 28 | 75.95 | 0.0 | ||||||
| 29 | 22:30 | E 9 | 16.09 | Fair | CLR | 26.9 | 17.6 | 57% | 28 | 75.95 | 0.0 | ||||||
| 29 | 22:10 | E 9 | 16.09 | Fair | CLR | 26.5 | 18.4 | 61% | 28 | 75.95 | 0.0 | ||||||
| 29 | 21:50 | E 9 | 16.09 | Thunderstorm in Vicinity | CLR | 27.1 | 18.1 | 58% | 28 | 75.97 | 0.0 | ||||||
| 29 | 21:30 | NE 9 | 16.09 | Fair | CLR | 27.6 | 17.6 | 54% | 28 | 75.97 | 0.0 | ||||||
| 29 | 21:10 | NE 11 | 16.09 | Fair | CLR | 28.4 | 17.5 | 52% | 29 | 75.97 | 0.0 | ||||||
| 29 | 20:50 | E 11 | 16.09 | Fair | CLR | 29.2 | 16.7 | 47% | 30 | 75.97 | 0.0 | ||||||
| 29 | 20:30 | E 11 | 16.09 | Fair | CLR | 30.1 | 16.5 | 44% | 30 | 75.95 | 0.0 | ||||||
| 29 | 20:10 | E 11 | 16.09 | Fair | CLR | 31.1 | 15.8 | 40% | 31 | 75.95 | 0.0 | ||||||
| 29 | 19:50 | E 13 | 16.09 | Fair | CLR | 32.7 | 14.6 | 33% | 32 | 75.95 | 0.0 | ||||||
| 29 | 19:30 | E 13 | 16.09 | Fair | CLR | 34 | 14.2 | 30% | 33 | 75.95 | 0.0 | ||||||
| 29 | 19:10 | E 11 | 16.09 | Fair | CLR | 33.6 | 14 | 31% | 33 | 75.97 | 0.0 | ||||||
| 29 | 18:50 | E 15 | 16.09 | Fair | CLR | 34.1 | 13.2 | 28% | 33 | 75.97 | 0.0 | ||||||
| 29 | 18:30 | E 17 | 16.09 | Fair | CLR | 34.8 | 12.6 | 26% | 34 | 75.97 | 0.0 | ||||||
| 29 | 18:10 | SE 17 | 16.09 | Fair | CLR | 35.2 | 12.8 | 26% | 34 | 75.97 | 0.0 | ||||||
| 29 | 17:50 | E 17 | 16.09 | Fair | CLR | 36.4 | 10.8 | 21% | 35 | 75.97 | 0.0 | ||||||
| 29 | 17:30 | E 20 G 26 | 16.09 | Fair | CLR | 36.4 | 12 | 23% | 35 | 76 | 0.0 | ||||||
| 29 | 17:10 | E 13 | 16.09 | Fair | CLR | 37 | 11.5 | 21% | 36 | 76 | 0.0 | ||||||
| Date | Time (cdt) | Wind (kph) | Vis. (km) | Weather | Sky Cond. | Air | Dwpt | Max. | Min. | Relative Humidity | Wind Chill (°C) | Heat Index (°C) | altimeter (cm) | sea level (mb) | 1 hr | 3 hr | 6 hr |
| 6 hour | |||||||||||||||||
| Temperature (ºC) | Pressure | Precipitation (cm) | |||||||||||||||